| time (UTC) | temp F | wind direction | speed MPH | gust MPH | rain 1hr in | rain 24hr in | rain mn in | humidity % | barometer mb |
| 20260506194548 | 51 | 225 | 0.0 | 0.0 | 0.00 | 0.17 | 0.17 | 94 | 1011.4 |
| 20260506193105 | 52 | 225 | 0.0 | 0.0 | 0.00 | 0.17 | 0.17 | 93 | 1011.2 |
| 20260506191546 | 52 | 225 | 0.0 | 0.0 | 0.00 | 0.17 | 0.17 | 93 | 1011.1 |
| 20260506190108 | 53 | 225 | 0.0 | 0.0 | 0.00 | 0.17 | 0.17 | 92 | 1010.8 |
| 20260506184604 | 53 | 225 | 0.0 | 0.0 | 0.00 | 0.17 | 0.17 | 91 | 1010.6 |
| 20260506183102 | 54 | 225 | 0.0 | 1.0 | 0.00 | 0.17 | 0.17 | 91 | 1010.5 |
| 20260506181552 | 54 | 84 | 0.0 | 1.0 | 0.00 | 0.17 | 0.17 | 90 | 1010.5 |
| 20260506180105 | 54 | 343 | 0.0 | 1.0 | 0.00 | 0.17 | 0.17 | 90 | 1010.2 |
| 20260506174559 | 54 | 77 | 0.0 | 1.0 | 0.00 | 0.17 | 0.17 | 92 | 1010.0 |
| 20260506173127 | 54 | 87 | 0.0 | 2.0 | 0.00 | 0.17 | 0.17 | 92 | 1009.9 |
| 20260506171549 | 55 | 72 | 0.0 | 2.0 | 0.00 | 0.17 | 0.17 | 92 | 1009.9 |
| 20260506170105 | 55 | 272 | 0.0 | 1.0 | 0.00 | 0.17 | 0.17 | 91 | 1009.8 |
| 20260506164555 | 56 | 62 | 0.0 | 3.0 | 0.00 | 0.17 | 0.17 | 90 | 1009.6 |
| 20260506163106 | 58 | 56 | 0.0 | 2.0 | 0.02 | 0.17 | 0.17 | 92 | 1009.6 |
| 20260506161612 | 57 | 300 | 0.0 | 3.0 | 0.03 | 0.17 | 0.17 | 92 | 1009.5 |
| 20260506160111 | 56 | 328 | 0.0 | 2.0 | 0.06 | 0.17 | 0.17 | 93 | 1009.6 |
| 20260506154601 | 56 | 82 | 0.0 | 1.0 | 0.09 | 0.19 | 0.17 | 97 | 1009.4 |
| 20260506153105 | 53 | 71 | 0.0 | 2.0 | 0.08 | 0.17 | 0.15 | 96 | 1009.5 |
| 20260506151556 | 53 | 72 | 0.0 | 1.0 | 0.06 | 0.15 | 0.13 | 96 | 1009.5 |
| 20260506150109 | 52 | 66 | 0.0 | 1.0 | 0.06 | 0.13 | 0.11 | 95 | 1009.6 |
| 20260506144613 | 52 | 358 | 0.0 | 1.0 | 0.08 | 0.09 | 0.08 | 94 | 1009.6 |
| 20260506143053 | 51 | 86 | 0.0 | 1.0 | 0.07 | 0.09 | 0.07 | 93 | 1009.4 |
| 20260506141601 | 52 | 145 | 0.0 | 4.0 | 0.07 | 0.09 | 0.07 | 90 | 1009.3 |
| 20260506140127 | 54 | 28 | 0.0 | 4.0 | 0.04 | 0.06 | 0.04 | 85 | 1009.2 |
| 20260506134554 | 56 | 102 | 0.0 | 3.0 | 0.00 | 0.02 | 0.00 | 81 | 1009.3 |
| 20260506133133 | 59 | 93 | 1.0 | 5.0 | 0.00 | 0.02 | 0.00 | 75 | 1009.2 |
| 20260506131600 | 61 | 268 | 0.0 | 8.0 | 0.00 | 0.02 | 0.00 | 67 | 1008.7 |
| 20260506130140 | 62 | 263 | 4.0 | 7.0 | 0.00 | 0.02 | 0.00 | 66 | 1008.6 |
| 20260506124602 | 62 | 266 | 2.0 | 7.0 | 0.00 | 0.02 | 0.00 | 72 | 1008.5 |
| 20260506123049 | 62 | 249 | 4.0 | 11.0 | 0.00 | 0.02 | 0.00 | 69 | 1008.6 |
| 20260506121553 | 61 | 229 | 4.0 | 7.0 | 0.00 | 0.02 | 0.00 | 70 | 1008.6 |
| 20260506120052 | 61 | 180 | 3.0 | 9.0 | 0.00 | 0.02 | 0.00 | 70 | 1008.6 |
| 20260506114544 | 62 | 231 | 4.0 | 8.0 | 0.00 | 0.02 | 0.00 | 71 | 1008.6 |
| 20260506113059 | 62 | 224 | 3.0 | 8.0 | 0.00 | 0.02 | 0.00 | 72 | 1008.5 |
| 20260506111554 | 61 | 248 | 5.0 | 10.0 | 0.00 | 0.02 | 0.00 | 74 | 1008.7 |
| 20260506110006 | 59 | 214 | 3.0 | 9.0 | 0.00 | 0.02 | 0.00 | 75 | 1008.8 |
| 20260506104603 | 59 | 139 | 5.0 | 11.0 | 0.00 | 0.02 | 0.00 | 76 | 1008.9 |
| 20260506103104 | 60 | 221 | 5.0 | 9.0 | 0.00 | 0.02 | 0.00 | 77 | 1009.0 |
| 20260506101600 | 59 | 221 | 4.0 | 8.0 | 0.00 | 0.02 | 0.00 | 77 | 1009.0 |
| 20260506100110 | 59 | 247 | 3.0 | 9.0 | 0.00 | 0.02 | 0.00 | 78 | 1008.9 |
| 20260506094606 | 58 | 141 | 3.0 | 9.0 | 0.00 | 0.02 | 0.00 | 80 | 1008.8 |
| 20260506093104 | 57 | 275 | 3.0 | 10.0 | 0.00 | 0.02 | 0.00 | 80 | 1008.6 |
| 20260506091558 | 56 | 255 | 5.0 | 12.0 | 0.00 | 0.02 | 0.00 | 80 | 1008.9 |
| 20260506090050 | 56 | 254 | 5.0 | 13.0 | 0.00 | 0.02 | 0.00 | 82 | 1008.7 |
| 20260506084605 | 55 | 239 | 3.0 | 10.0 | 0.00 | 0.02 | 0.00 | 84 | 1008.5 |
| 20260506083100 | 54 | 247 | 4.0 | 9.0 | 0.00 | 0.02 | 0.00 | 85 | 1008.5 |
| 20260506081604 | 54 | 241 | 4.0 | 9.0 | 0.00 | 0.02 | 0.00 | 86 | 1008.4 |
| 20260506073101 | 52 | 270 | 4.0 | 8.0 | 0.00 | 0.02 | 0.00 | 90 | 1008.4 |
| 20260506071601 | 52 | 243 | 3.0 | 6.0 | 0.00 | 0.02 | 0.00 | 92 | 1008.4 |
| 20260506070103 | 51 | 236 | 0.0 | 3.0 | 0.00 | 0.02 | 0.00 | 94 | 1008.2 |
| 20260506061548 | 50 | 248 | 0.0 | 4.0 | 0.00 | 0.02 | 0.00 | 95 | 1007.8 |
| 20260506044556 | 49 | 221 | 0.0 | 3.0 | 0.00 | 0.04 | 0.00 | 95 | 1007.7 |
| 20260506043110 | 49 | 250 | 0.0 | 4.0 | 0.00 | 0.04 | 0.00 | 95 | 1007.6 |
| 20260506041554 | 49 | 230 | 1.0 | 5.0 | 0.00 | 0.04 | 0.00 | 95 | 1007.5 |
| 20260506034618 | 49 | 218 | 2.0 | 5.0 | 0.00 | 0.05 | 0.00 | 95 | 1007.3 |
| 20260506033052 | 49 | 238 | 1.0 | 5.0 | 0.00 | 0.05 | 0.00 | 95 | 1007.5 |
| 20260506031555 | 49 | 233 | 1.0 | 4.0 | 0.00 | 0.05 | 0.00 | 95 | 1007.6 |
| 20260506030048 | 49 | 220 | 1.0 | 3.0 | 0.00 | 0.05 | 0.00 | 94 | 1007.6 |
| 20260506024552 | 49 | 247 | 0.0 | 6.0 | 0.00 | 0.05 | 0.00 | 95 | 1007.6 |
| 20260506023106 | 49 | 214 | 1.0 | 6.0 | 0.00 | 0.05 | 0.00 | 94 | 1007.7 |
| 20260506021546 | 49 | 222 | 3.0 | 8.0 | 0.00 | 0.05 | 0.00 | 94 | 1007.6 |
| 20260506020100 | 49 | 207 | 2.0 | 7.0 | 0.00 | 0.05 | 0.00 | 95 | 1007.6 |
| 20260506014605 | 49 | 250 | 3.0 | 7.0 | 0.00 | 0.06 | 0.00 | 95 | 1007.6 |
| 20260506013111 | 48 | 247 | 2.0 | 7.0 | 0.00 | 0.06 | 0.00 | 95 | 1007.7 |
| 20260506011600 | 48 | 248 | 3.0 | 6.0 | 0.00 | 0.06 | 0.00 | 95 | 1007.9 |
| 20260506010112 | 48 | 202 | 1.0 | 4.0 | 0.00 | 0.06 | 0.00 | 94 | 1008.1 |
| 20260506004506 | 49 | 236 | 0.0 | 3.0 | 0.00 | 0.06 | 0.00 | 94 | 1008.3 |
| 20260506003107 | 49 | 226 | 1.0 | 4.0 | 0.00 | 0.06 | 0.00 | 94 | 1008.3 |
| 20260506001554 | 49 | 252 | 2.0 | 7.0 | 0.00 | 0.06 | 0.00 | 93 | 1008.5 |
| 20260506000051 | 49 | 245 | 2.0 | 6.0 | 0.00 | 0.06 | 0.00 | 94 | 1008.7 |
| 20260505234600 | 49 | 229 | 0.0 | 5.0 | 0.00 | 0.09 | 0.00 | 94 | 1008.8 |
| 20260505233124 | 49 | 240 | 3.0 | 6.0 | 0.00 | 0.09 | 0.00 | 94 | 1008.6 |
| 20260505231557 | 49 | 198 | 1.0 | 5.0 | 0.00 | 0.09 | 0.00 | 94 | 1008.6 |
| 20260505230100 | 49 | 228 | 1.0 | 5.0 | 0.00 | 0.09 | 0.00 | 93 | 1008.7 |
| 20260505224558 | 50 | 227 | 2.0 | 5.0 | 0.00 | 0.13 | 0.00 | 93 | 1008.9 |
| 20260505223052 | 50 | 215 | 1.0 | 7.0 | 0.00 | 0.13 | 0.00 | 92 | 1008.8 |
| 20260505221557 | 50 | 222 | 1.0 | 4.0 | 0.00 | 0.13 | 0.00 | 92 | 1008.8 |
| 20260505220104 | 51 | 217 | 0.0 | 3.0 | 0.00 | 0.13 | 0.00 | 91 | 1009.1 |
| 20260505214619 | 51 | 232 | 0.0 | 2.0 | 0.00 | 0.14 | 0.13 | 91 | 1009.2 |
| 20260505213109 | 51 | 188 | 0.0 | 2.0 | 0.00 | 0.14 | 0.13 | 92 | 1009.3 |
| 20260505211554 | 51 | 215 | 0.0 | 1.0 | 0.00 | 0.14 | 0.13 | 91 | 1009.4 |
| 20260505210107 | 51 | 225 | 0.0 | 1.0 | 0.00 | 0.14 | 0.13 | 91 | 1009.4 |
| 20260505204557 | 51 | 251 | 0.0 | 4.0 | 0.00 | 0.20 | 0.13 | 91 | 1009.4 |
| 20260505203103 | 51 | 221 | 0.0 | 4.0 | 0.00 | 0.20 | 0.13 | 91 | 1009.3 |
| 20260505201559 | 51 | 188 | 1.0 | 5.0 | 0.00 | 0.20 | 0.13 | 92 | 1009.0 |
| 20260505200056 | 51 | 233 | 0.0 | 4.0 | 0.00 | 0.20 | 0.13 | 90 | 1008.7 |